Notices

What's New in latest Release from April 7th, 2021:

- Updated Glossary, including Speed of Maximum Gust, and Total Hourly Precipitation

- Updated national and regional climate services offices contacts and prices information

- Addition of station inventory lists for 1981-2010, 1971-2000, and 1961-1990 Normals.

If you haven't already, please take our survey and provide feedback about our website: https://eccc.sondage-survey.ca/f/LanguageSelection.aspx?s=442ca660-fcf1-47c0-95a9-59707d6fd709

Hourly Data Report for March 01, 2018

MIRAMICHI RCS
NEW BRUNSWICK

47°00'34.000" N
65°27'54.000" W
33.00 m
8100989
71744
ACQ

Download Data

Hourly Data (March 2018)
Hourly Data Report for March 1, 2018
TIME
LST
Temp Definition
°C
Dew Point Definition
°C
Rel Hum Definition
%
Precip. Amount Definition
mm

Wind Dir Definition
10's deg

Wind Spd Definition
km/h
Visibility Definition
km
Stn Press Definition
kPa
Hmdx Definition


Wind Chill Definition


Weather Definition


00:00 -3.2 -5.3 85 0.0 6 13   101.46   -8 LegendNANA
01:00 -3.3 -5.9 82 0.0 7 10   101.46   -7 LegendNANA
02:00 -3.5 -6.7 79 0.0 6 8   101.49   -7 LegendNANA
03:00 -3.7 -6.8 79 0.0 6 11   101.45   -8 LegendNANA
04:00 -3.8 -7.0 78 0.0 7 16   101.42   -9 LegendNANA
05:00 -3.9 -7.4 77 0.0 6 15   101.41   -9 LegendNANA
06:00 -4.1 -8.7 70 0.0 7 15   101.41   -9 LegendNANA
07:00 -4.1 -8.6 71 0.0 7 20   101.44   -10 LegendNANA
08:00 -4.1 -8.6 71 0.0 7 18   101.48   -10 LegendNANA
09:00 -4.3 -7.2 80 0.2 6 19   101.48   -10 LegendNANA
10:00 -3.4 -6.4 80 0.0 6 24   101.45   -10 LegendNANA
11:00 -3.0 -6.1 79 0.0 7 24   101.44   -10 LegendNANA
12:00 -3.3 -6.2 81 0.0 6 25   101.43   -10 LegendNANA
13:00 -3.6 -5.6 86 0.0 6 22   101.42   -10 LegendNANA
14:00 -3.9 -5.4 89 0.2 6 20   101.44   -10 LegendNANA
15:00 -3.8 -5.3 90 0.6 6 22   101.44   -10 LegendNANA
16:00 -3.6 -4.9 91 0.6 6 23   101.44   -10 LegendNANA
17:00 -3.4 -4.5 92 0.7 6 19   101.42   -9 LegendNANA
18:00 -3.2 -4.2 93 0.7 5 18   101.43   -9 LegendNANA
19:00 -3.1 -4.0 94 1.1 5 16   101.46   -8 LegendNANA
20:00 -3.0 -3.8 94 1.4 4 16   101.44   -8 LegendNANA
21:00 -2.7 -3.5 94 1.3 5 15   101.43   -8 LegendNANA
22:00 -2.5 -3.3 94 1.3 5 19   101.38   -8 LegendNANA
23:00 -2.5 -3.3 94 0.6 6 23   101.36   -9 LegendNANA

Notes on Data Quality.

Legend

  • E = Estimated
  • M = Missing
  • NA = Not Available*
  • [empty] = Indicates an unobserved value
Date modified: